Powrót do katalogu

THORAD DELTA 1 DEB

AktywnySSO
NORAD 42612·DEBRIS·🇺🇸 United States

Wystrzelony Nov 15, 1974 z Vandenberg Space Force Base

Loading…

Następne Przeloty (najbliższe 24 godziny)

TLE

Starzejące sięSource: Space-Track

Epoka: Sep 6, 2026, 05:07 UTC

1 42612U 74089GD  26249.21331579  .00000021  00000-0  33740-3 0  9990
2 42612 101.6219 249.6652 0083298 246.7407 112.4889 12.69909884572947

Śledź THORAD DELTA 1 DEB w czasie rzeczywistym z AllMySat

Download on the App Store